Zurück zum Katalog

STARLINK-37789

AktivKommunikationSSO
NORAD 69495·PAYLOAD·🇺🇸 United States

Gestartet Jun 11, 2026 von Vandenberg Space Force Base

Loading…

Nächste Überflüge (nächste 24 Stunden)

TLE

AktuellSource: CelesTrak SupGP

Epoche: Sep 15, 2026, 04:37 UTC

1 69495C 26131T   26258.19284722 -.00057691  00000+0 -17912-2 0  2583
2 69495  97.2835 279.1778 0001343  92.2873  31.6592 15.33462667    12

Verfolge STARLINK-37789 in Echtzeit mit AllMySat

Download on the App Store